Retour au catalogue

SL-12 R/B(2)

ActifMEO
NORAD 14984·ROCKET BODY·🇷🇺 Russia

Lancé May 19, 1984 depuis Baikonur Cosmodrome

Loading…

Prochains Passages (prochaines 24 heures)

TLE

VieillissantSource: Space-Track

Époque: Aug 22, 2026, 20:20 UTC

1 14984U 84047F   26234.84780603 -.00000079  00000-0  00000+0 0  9998
2 14984  66.3553 326.2613 0010533 227.3801 135.0770  2.13163326328973

Suivez SL-12 R/B(2) en temps réel avec AllMySat

Download on the App Store